Location: Dal�� Lhota
(48.7500°N, 14.0167°E)
Time: 11:25:48
(UTC+00:00)

NOSS 3-4 (A) - Visible Passes

Search period start: 16 January 2021 00:00
Search period end: 26 January 2021 00:00
Orbit: 879 x 1333 km, 63.4° (Epoch: 31 December)

Date Brightness Start Highest point End Pass type
(mag) Time Alt. Az. Time Alt. Az. Time Alt. Az.
16 Jan 4.1 17:14:22 10° WSW 17:20:09 51° NW 17:25:18 15° NE visible
16 Jan 5.1 19:07:37 10° WNW 19:12:35 24° N 19:12:45 24° N visible
17 Jan 3.6 16:29:19 10° SW 16:35:11 71° NW 16:41:35 10° NE visible
17 Jan 5.0 18:22:03 10° WNW 18:27:12 27° NNW 18:29:30 22° NNE visible
17 Jan 5.8 20:15:13 10° NW 20:16:57 16° NNW 20:16:57 16° NNW visible
18 Jan 4.7 17:36:32 10° W 17:41:57 33° NNW 17:46:15 16° NNE visible
18 Jan 5.3 19:29:57 10° NW 19:33:42 22° NNW 19:33:42 22° NNW visible
19 Jan 4.3 16:51:07 10° WSW 16:56:47 42° NNW 17:02:55 10° NE visible
19 Jan 5.1 18:44:32 10° WNW 18:49:26 23° N 18:50:26 22° N visible
19 Jan 6.0 20:36:54 10° NW 20:37:52 14° NNW 20:37:52 14° NNW visible
20 Jan 3.9 16:05:55 10° WSW 16:11:45 58° NW 16:18:05 10° NE visible
20 Jan 5.0 17:59:00 10° WNW 18:04:02 25° NNW 18:07:09 18° NNE visible
20 Jan 5.5 19:51:54 10° NW 19:54:35 20° NNW 19:54:35 20° NNW visible
21 Jan 4.8 17:13:27 10° W 17:18:42 29° NNW 17:23:51 12° NE visible
21 Jan 5.2 19:06:44 10° NW 19:11:18 23° N 19:11:18 23° N visible
21 Jan 6.2 20:58:16 10° NW 20:58:44 12° NW 20:58:44 12° NW visible
22 Jan 4.6 16:27:58 10° W 16:33:28 36° NNW 16:39:27 10° NE visible
22 Jan 5.1 18:21:24 10° NW 18:26:18 23° N 18:28:00 21° NNE visible
22 Jan 5.7 20:13:27 10° NW 20:15:26 19° NNW 20:15:26 19° NNW visible
23 Jan 5.1 17:35:56 10° WNW 17:40:52 24° N 17:44:42 15° NNE visible
23 Jan 5.2 19:28:31 10° NW 19:32:09 24° N 19:32:09 24° N visible
23 Jan 6.3 21:19:30 10° NW 21:19:35 10° NW 21:19:35 10° NW visible
24 Jan 4.9 16:50:23 10° WNW 16:55:29 27° NNW 17:01:01 10° NE visible
24 Jan 5.0 18:43:28 10° NW 18:48:36 24° N 18:48:50 24° NNE visible
24 Jan 5.8 20:34:45 10° NW 20:36:17 18° NNW 20:36:17 18° NNW visible
25 Jan 5.1 17:58:14 10° NW 18:03:11 23° N 18:05:33 19° NNE visible
25 Jan 5.3 19:49:57 10° NW 19:53:00 25° NNW 19:53:00 25° NNW visible
